Flag for Morocco Weather past 2 weeks in Casablanca, Morocco

Now
64 °F

Fog.


Feels Like: 64 °F
Forecast: 66 / 77 °F
Wind: 5 mph from South

Location: Casablanca Airport

Current Time: Oct 25, 2014 at 6:46:37 AM

Latest Report: Oct 25, 2014 at 6:00 AM


Visibility: 0 mi

Pressure: 29.95 "Hg

Humidity: 100%

Dew point: 64 °F

Location of CasablancaLocation

Historic Weather in Casablanca — Graph

°F

Casablanca temperature yesterday

Maximum temperature yesterday: 77 °F (at 1:00 PM)
Minimum temperature yesterday: 64 °F (at 8:00 AM)
Average temperature yesterday: 70 °F

Past Weeks' High & Low Weather Summary

 TemperatureHumidityPressure
High102 °F (Oct 22, 5:00 PM)100% (Oct 14, 7:00 AM)30.15 "Hg (Oct 14, 7:00 AM)
Low59 °F (Oct 13, 6:00 AM)23% (Oct 22, 5:00 PM)29.80 "Hg (Oct 11, 4:00 PM)
Average73 °F75%29.98 "Hg
* Reported Oct 10 2:00 AM — Oct 25 2:00 AM, Casablanca, Weather by CustomWeather, © 2014

Note: Actual official high and low records may vary slightly from our data, if they occured in-between our weather recording intervals... More about our weather records

Advertising

Casablanca weather history for previous 24 hours

 ConditionsComfort  
Time TempWeatherWind HumidityBarometerVisibility
2:00 AM
Oct 25
68 °FClear.2 mph83%29.95 "Hg5 mi
1:00 AM68 °FClear.3 mph83%29.95 "Hg5 mi
12:00 AM70 °FClear.5 mph83%29.98 "Hg5 mi
11:00 PM
Oct 24
72 °FPassing clouds.6 mph78%29.98 "Hg5 mi
10:00 PM72 °FPassing clouds.2 mph83%29.95 "Hg5 mi
9:00 PM72 °FPassing clouds.5 mph88%29.92 "Hg5 mi
8:00 PM72 °FPassing clouds.5 mph88%29.92 "Hg5 mi
7:00 PM72 °FPassing clouds.5 mph88%29.92 "Hg5 mi
6:00 PM73 °FPassing clouds.7 mph83%29.89 "Hg5 mi
5:00 PM73 °FClear.7 mph83%29.89 "Hg5 mi
4:00 PM75 °FClear.6 mph78%29.89 "Hg5 mi
3:00 PM75 °FClear.9 mph74%29.89 "Hg5 mi
2:00 PM75 °FClear.9 mph74%29.92 "Hg5 mi
1:00 PM77 °FPartly sunny.5 mph61%29.92 "Hg4 mi
12:00 PM73 °FPartly sunny.5 mph69%29.95 "Hg3 mi
11:00 AM70 °FFog.7 mph78%29.95 "Hg2 mi
10:00 AM64 °FFog.8 mph88%29.95 "Hg1 mi
9:00 AM64 °FFog.5 mph94%29.95 "Hg1 mi
8:00 AM64 °FFog.5 mph94%29.92 "Hg1 mi
7:00 AM66 °FSunny.5 mph94%29.92 "Hg10 mi
Weather by CustomWeather, © 2014

See weather overviewHow to use our weather pages